Satellite-Ground Cal/Val Region Overpasses Predictions

Prediction of Satellite NPP Overpassing Cal/Val Region: PacNW

Region Location: (Latitude: 10.00, Longitude: 139.50) to (Latitude: 22.70, Longitude: 165.60).

Table of predicted overpasses for the next 14.0 days since TLE Epoch: 8/11/2017
Interval Starting Time Starting Location Ending Time Ending Location
1 08/12/2017 02:39:19 ( 10.00, 159.95) 08/12/2017 02:42:55 ( 22.68, 156.94)
2 08/12/2017 15:11:13 ( 22.68, 157.19) 08/12/2017 15:14:49 ( 10.01, 154.17)
3 08/13/2017 02:20:18 ( 10.03, 164.70) 08/13/2017 02:23:53 ( 22.66, 161.70)
4 08/13/2017 14:52:12 ( 22.65, 161.94) 08/13/2017 14:55:47 ( 10.03, 158.93)
5 08/14/2017 03:42:47 ( 10.01, 144.09) 08/14/2017 03:46:23 ( 22.69, 141.07)
6 08/14/2017 14:34:28 ( 18.16, 165.59) 08/14/2017 14:36:47 ( 10.00, 163.68)
7 08/14/2017 16:14:41 ( 22.68, 141.32) 08/14/2017 16:16:49 ( 15.17, 139.50)
8 08/15/2017 03:23:46 ( 10.04, 148.83) 08/15/2017 03:27:21 ( 22.67, 145.83)
9 08/15/2017 15:55:40 ( 22.64, 146.07) 08/15/2017 15:59:15 ( 10.02, 143.06)
10 08/16/2017 03:04:45 ( 10.02, 153.60) 08/16/2017 03:08:20 ( 22.64, 150.59)
11 08/16/2017 15:36:39 ( 22.67, 150.83) 08/16/2017 15:40:14 ( 10.05, 147.83)
12 08/17/2017 02:45:44 ( 10.05, 158.34) 08/17/2017 02:49:19 ( 22.68, 155.34)
13 08/17/2017 15:17:37 ( 22.69, 155.59) 08/17/2017 15:21:13 ( 10.02, 152.57)
14 08/18/2017 02:26:43 ( 10.03, 163.10) 08/18/2017 02:30:18 ( 22.65, 160.10)
15 08/18/2017 14:58:37 ( 22.66, 160.34) 08/18/2017 15:02:12 ( 10.04, 157.33)
16 08/19/2017 02:10:26 ( 19.64, 165.60) 08/19/2017 02:11:18 ( 22.69, 164.85)
17 08/19/2017 03:49:11 ( 10.01, 142.49) 08/19/2017 03:52:44 ( 22.51, 139.51)
18 08/19/2017 14:39:35 ( 22.69, 165.10) 08/19/2017 14:43:11 ( 10.01, 162.08)
19 08/19/2017 16:21:05 ( 22.68, 139.72) 08/19/2017 16:21:20 ( 21.80, 139.50)
20 08/20/2017 03:30:11 ( 10.04, 147.24) 08/20/2017 03:33:46 ( 22.66, 144.23)
21 08/20/2017 16:02:05 ( 22.65, 144.47) 08/20/2017 16:05:40 ( 10.03, 141.47)
22 08/21/2017 03:11:10 ( 10.02, 152.00) 08/21/2017 03:14:46 ( 22.70, 148.98)
23 08/21/2017 15:43:03 ( 22.67, 149.23) 08/21/2017 15:46:38 ( 10.06, 146.23)
24 08/22/2017 02:52:09 ( 10.05, 156.74) 08/22/2017 02:55:44 ( 22.68, 153.74)
25 08/22/2017 15:24:02 ( 22.70, 153.99) 08/22/2017 15:27:38 ( 10.02, 150.98)
26 08/23/2017 02:33:08 ( 10.03, 161.50) 08/23/2017 02:36:43 ( 22.65, 158.50)
27 08/23/2017 15:05:01 ( 22.66, 158.74) 08/23/2017 15:08:36 ( 10.05, 155.74)
28 08/24/2017 02:14:56 ( 12.95, 165.59) 08/24/2017 02:17:42 ( 22.69, 163.25)
29 08/24/2017 03:55:36 ( 10.01, 140.89) 08/24/2017 03:57:17 ( 15.94, 139.51)
30 08/24/2017 14:46:00 ( 22.69, 163.50) 08/24/2017 14:49:36 ( 10.01, 160.48)
31 08/25/2017 03:36:36 ( 10.05, 145.64) 08/25/2017 03:40:11 ( 22.67, 142.63)
32 08/25/2017 14:30:08 ( 11.56, 165.59) 08/25/2017 14:30:34 ( 10.04, 165.24)


NCC Satellite Cal/Val Overpasses Prediction Service
